Location: ???????
(55.4362°N, 38.1183°E)
Time: 20:05:08
(UTC+00:00)

M-CUBED/EXP-1 PRIME - Pass Details

Date: 12 December 2021
Orbit: 426 x 650 km, 101.7° (Epoch: 26 January)

Event Time Altitude Azimuth Distance (km) Brightness Sun altitude
Rises 16:25:09 0° 202° (SSW) 2,878 ? -27.8°
Reaches altitude 10° 16:27:54 10° 221° (SW) 2,009 ? -28.2°
Maximum altitude 16:30:56 18° 266° (W) 1,564 ? -28.6°
Drops below altitude 10° 16:34:04 10° 310° (NW) 2,065 ? -29.1°
Sets 16:36:57 0° 329° (NNW) 2,989 ? -29.5°
